"TOA5","AWS1","CR1000","7964","CR1000.Std.14","CPU:AWS1_114.CR1","64363","TBL110"
"TIMESTAMP","RECORD","Wind_spd_WVc(1)","Wind_spd_WVc(2)","Air_Temp_Avg","Humidity_Avg","SW_upper_Wm2_Avg","Rain_Tot","Press_Avg","Issui_Tot","Depth_cm","SR50A_Raw","Quality","Ground_Temp_Avg(1)","Ground_Temp_Avg(2)","SW_lower_Wm2_Avg","Albedo_Avg","SWC_per(1)","SWC_per(2)","Period(1)","Period(2)"
"TS","RN","","","","","","","","","","","","","","","","","","",""
"","","WVc","WVc","Avg","Avg","Avg","Tot","Avg","Tot","Smp","Smp","Smp","Avg","Avg","Avg","Avg","Smp","Smp","Smp","Smp"
"2016-11-11 00:00:00",261421,1.016,152,7.29,67.31,0,0,866.3312,0,-2.034,3.159,200,7.22,8.46,0.2274503,0,51.55,59.2,33.68,35.5
"2016-11-11 00:10:00",261422,0.52,142.9,7.188,67.94,0,0,866.2032,0,-1.478,3.154,206,7.25,8.46,0.01895419,0,51.49,59.2,33.66,35.5
"2016-11-11 00:20:00",261423,0.707,141.1,7.174,67,0,0,865.9603,0,-2.235,3.161,206,7.251,8.46,0.05307136,0,51.49,59.2,33.66,35.5
"2016-11-11 00:30:00",261424,1.141,156.4,7.268,65.16,0,0,865.8082,0,-2.893,3.167,213,7.251,8.44,0.2388196,0,51.49,59.2,33.66,35.5
"2016-11-11 00:40:00",261425,0.467,207,7.128,67.01,0,0,866.1946,0,-2.04,3.162,212,7.252,8.43,0.03032642,0,51.55,59.2,33.68,35.5
"2016-11-11 00:50:00",261426,0.334,126.9,6.433,73.54,0,0,866.2962,0,-1.184,3.155,202,7.246,8.45,0.1023524,0,51.49,59.2,33.66,35.5
"2016-11-11 01:00:00",261427,0.668,164.1,6.168,78.64,0,0.5,866.1385,0,-1.368,3.16,243,7.23,8.46,0.2426134,0,51.49,59.2,33.66,35.5
"2016-11-11 01:10:00",261428,0.51,153.8,5.414,86.4,0,0.5,865.9318,0,-1.449,3.164,194,7.193,8.47,0.02653586,0,51.55,59.2,33.68,35.5
"2016-11-11 01:20:00",261429,0.933,151.1,5.027,88.2,0,0.5,865.7074,0,-1.655,3.168,193,7.161,8.47,0.3222211,0,51.55,59.2,33.68,35.5
"2016-11-11 01:30:00",261430,0.989,151.4,4.953,86.5,0,0.5,865.4992,0,-2.035,3.173,217,7.116,8.47,0.4738545,0,51.49,59.2,33.66,35.5
"2016-11-11 01:40:00",261431,0.822,147.6,4.813,86.3,0,0,865.2151,0,-1.782,3.17,197,7.088,8.46,0.7392131,0,51.49,59.2,33.66,35.5
"2016-11-11 01:50:00",261432,0.439,122.1,4.527,90.4,0,0.5,864.9439,0,-1.86,3.173,192,7.091,8.47,0.4700637,0,51.55,59.2,33.68,35.5
"2016-11-11 02:00:00",261433,0.748,122.1,4.496,92.5,0,0,864.9298,0,-2.213,3.177,195,7.091,8.44,0.5724163,0,51.55,59.2,33.68,35.5
"2016-11-11 02:10:00",261434,0.132,155.3,4.182,96.4,0,1,864.9237,0,-2.088,3.176,209,7.097,8.4,0.1288884,0,51.55,59.14,33.68,35.48
"2016-11-11 02:20:00",261435,0.64,29.17,4.325,98.8,0,1,864.9448,0,-3.825,3.191,197,7.097,8.38,0.5724163,0,51.66,59.2,33.7,35.5
"2016-11-11 02:30:00",261436,0.945,23.71,4.733,91.9,0,0.5,864.7804,0,-3.269,3.185,195,7.104,8.34,0.99699,0,51.88,59.14,33.76,35.48
"2016-11-11 02:40:00",261437,0.772,5.985,4.679,90.3,0,0,864.7361,0,-2.868,3.182,213,7.119,8.32,0.9098007,0,52.16,59.2,33.83,35.5
"2016-11-11 02:50:00",261438,0.889,330.9,4.483,92.4,0,0.5,864.5865,0,-1.81,3.173,253,7.139,8.32,0.6330697,0,52.38,59.26,33.88,35.51
"2016-11-11 03:00:00",261439,0.433,299.6,4.122,97.2,0,1,864.9785,0,-2.493,3.182,203,7.163,8.34,0.1061434,0,52.55,59.32,33.92,35.52
"2016-11-11 03:10:00",261440,0.527,26.21,4.003,100,0,1,864.7804,0,-1.509,3.171,258,7.168,8.33,0.2388227,0,52.83,59.32,33.99,35.52
"2016-11-11 03:20:00",261441,0.797,125.1,4.176,100,0,0,864.6329,0,-1.358,3.169,203,7.168,8.35,0.4473187,0,53.11,59.38,34.06,35.54
"2016-11-11 03:30:00",261442,0.984,352.2,4.305,99.3,0,0.5,864.3759,0,-0.652,3.162,271,7.168,8.36,0.5155538,0,53.28,59.5,34.1,35.56
"2016-11-11 03:40:00",261443,0.729,207.6,4.197,99.1,0,0.5,864.0367,0,-3.172,3.188,196,7.168,8.37,0.3184303,0,53.39,59.61,34.13,35.59
"2016-11-11 03:50:00",261444,1.098,25.45,4.374,98.2,0.01572651,0.5,863.7986,0,-3.321,3.187,239,7.143,8.37,0.6861414,0.257,53.45,59.79,34.14,35.63
"2016-11-11 04:00:00",261445,1.4,47.72,4.607,95.9,0.08649579,0.5,863.4825,0,-2.564,3.178,185,7.09,8.38,0.602743,0.916,53.45,59.97,34.14,35.67
"2016-11-11 04:10:00",261446,0.398,325.4,4.762,96.1,0.1376069,1,863.8765,0,-1.607,3.17,253,7.067,8.38,0.4965996,1.141,53.61,60.21,34.18,35.73
"2016-11-11 04:20:00",261447,0.186,349.3,4.117,99.7,0,1,864.2158,0,-2.794,3.185,202,7.071,8.38,0,0,53.84,60.56,34.23,35.81
"2016-11-11 04:30:00",261448,0.349,289.1,3.56,100,0,1,864.4348,0,-3.174,3.194,193,7.081,8.38,0,0,53.95,61.22,34.26,35.96
"2016-11-11 04:40:00",261449,0.23,314.9,2.987,100,0,1,864.3021,0,-1.716,3.18,221,7.035,8.38,0,0,54.12,61.82,34.3,36.09
"2016-11-11 04:50:00",261450,0.209,118.4,3.111,100,0,0,864.458,0,-1.463,3.176,213,6.98,8.38,0.1516335,0,54.12,62.12,34.3,36.16
"2016-11-11 05:00:00",261451,0.235,185.8,3.326,100,0.07863254,1,864.6476,0,-2.57,3.186,198,6.994,8.33,0.3449661,0.643,54.12,62.18,34.3,36.17
"2016-11-11 05:10:00",261452,0.263,151.2,3.457,100,0.1769232,0.5,865.0185,0,-2.317,3.183,192,6.994,8.3,0.2615677,0.611,54.18,62.3,34.32,36.2
"2016-11-11 05:20:00",261453,0.922,128.2,3.555,100,0,0,864.6202,0,-1.586,3.173,259,6.989,8.28,0.3184303,0,54.12,62.36,34.3,36.21
"2016-11-11 05:30:00",261454,1.02,106.1,3.997,100,0.06290603,0,864.517,0,-3.425,3.192,221,6.921,8.25,0.4814362,0.675,54.07,62.48,34.29,36.24
"2016-11-11 05:40:00",261455,1.031,64.1,4.057,100,0.2123079,0.5,864.4474,0,-3.121,3.186,227,6.896,8.27,0.4738545,1.028,54.01,62.48,34.27,36.24
"2016-11-11 05:50:00",261456,0.959,72.94,4.641,100,0.4521371,0,864.4138,0,-2.439,3.178,199,6.847,8.27,0.9211732,2.073,53.95,62.42,34.26,36.23
"2016-11-11 06:00:00",261457,0.157,272.8,4.522,100,0.2437609,0,864.3864,0,-2.159,3.173,211,6.835,8.26,0.3563386,0.546,53.9,62.42,34.25,36.23
"2016-11-11 06:10:00",261458,0.591,291,4.552,100,0.2594874,0,864.8078,0,-2.619,3.184,203,6.841,8.25,0.3184303,0.53,53.95,62.36,34.26,36.21
"2016-11-11 06:20:00",261459,0.608,115.4,3.573,100,0.09042741,0.5,864.7193,0,-3.223,3.191,225,6.882,8.26,0,0,53.84,62.36,34.23,36.21
"2016-11-11 06:30:00",261460,0.412,141.7,3.604,100,1.427181,0,864.5634,0,-3.626,3.195,187,6.903,8.29,0.1781693,0.114,53.84,62.3,34.23,36.2
"2016-11-11 06:40:00",261461,0.517,154.2,3.725,100,3.955216,0,864.4643,0,-2.996,3.187,193,6.901,8.29,0.5003904,0.135,53.73,62.24,34.21,36.19
"2016-11-11 06:50:00",261462,0.313,151,4.173,100,7.403253,0,864.4601,0,-3.776,3.193,189,6.9,8.29,1.300257,0.176,53.73,62.18,34.21,36.17
"2016-11-11 07:00:00",261463,0.485,153.8,4.88,100,14.1971,0,864.4643,0,-3.518,3.183,190,6.901,8.29,2.714239,0.189,53.67,62.18,34.19,36.17
"2016-11-11 07:10:00",261464,0.733,153.4,5.921,100,17.04753,0,864.4686,0,-3.235,3.177,192,6.892,8.27,2.710448,0.161,53.61,62.06,34.18,36.15
"2016-11-11 07:20:00",261465,0.87,152,6.585,100,29.64054,0,864.6392,0,-3.861,3.179,185,6.834,8.26,4.57933,0.154,53.61,62.06,34.18,36.15
"2016-11-11 07:30:00",261466,1.011,150.1,7.037,99.8,26.07455,0,864.7172,0,-3.959,3.178,190,6.823,8.26,3.787045,0.145,53.56,62,34.17,36.13
"2016-11-11 07:40:00",261467,1.044,153.1,7.269,99.2,31.1896,0,864.6266,0,-3.881,3.176,185,6.831,8.24,4.465605,0.144,53.5,61.94,34.15,36.12
"2016-11-11 07:50:00",261468,0.93,139.7,7.499,99.1,41.70276,0,864.635,0,-2.635,3.162,210,6.883,8.22,6.008476,0.144,53.5,61.88,34.15,36.11
"2016-11-11 08:00:00",261469,0.77,128.8,7.685,98.2,42.86653,0,864.7269,0,-2.662,3.163,195,6.97,8.21,5.765862,0.134,53.45,61.82,34.14,36.09
"2016-11-11 08:10:00",261470,0.957,109.8,7.734,99.7,63.8968,0,864.8993,0,-2.786,3.163,194,6.994,8.21,8.525591,0.133,53.45,61.76,34.14,36.08
"2016-11-11 08:20:00",261471,0.517,63.71,7.783,100,37.2711,0,865.0432,0,-1.968,3.155,217,6.982,8.2,4.780154,0.129,53.33,61.76,34.11,36.08
"2016-11-11 08:30:00",261472,0.584,93.1,7.773,100,90.3387,0,865.0939,0,-1.908,3.154,216,6.925,8.19,11.97064,0.132,53.33,61.7,34.11,36.06
"2016-11-11 08:40:00",261473,0.631,110.3,7.893,100,79.5394,0,864.9222,0,-1.697,3.152,216,6.88,8.18,10.40464,0.129,53.28,61.64,34.1,36.05
"2016-11-11 08:50:00",261474,0.592,72.68,7.887,100,102.3742,0,865.0711,0,-2.312,3.158,196,6.853,8.15,13.29172,0.129,53.28,61.58,34.1,36.04
"2016-11-11 09:00:00",261475,0.632,127.8,7.851,100,105.9068,0,865.1425,0,-2.963,3.164,200,6.834,8.13,13.84768,0.131,53.22,61.52,34.08,36.02
"2016-11-11 09:10:00",261476,0.565,47.89,7.87,100,95.8023,0,865.2267,0,-2.582,3.161,207,6.868,8.12,12.22148,0.127,53.16,61.46,34.07,36.01
"2016-11-11 09:20:00",261477,0.462,101.2,8.05,100,191.9012,0,865.3636,0,-3.031,3.163,197,6.908,8.12,27.14465,0.141,53.16,61.46,34.07,36.01
"2016-11-11 09:30:00",261478,0.584,90.9,8.16,98.9,137.0179,0,865.212,0,-1.942,3.153,265,6.925,8.12,18.04963,0.132,53.11,61.4,34.06,36
"2016-11-11 09:40:00",261479,0.483,54.06,8.27,99.3,222.4975,0,865.3362,0,-2.849,3.16,198,6.905,8.12,30.55131,0.137,53.11,61.34,34.06,35.98
"2016-11-11 09:50:00",261480,0.582,63.58,8.5,97.3,171.4863,0,865.3848,0,-3.867,3.171,190,6.953,8.12,23.47244,0.136,53.05,61.28,34.04,35.97
"2016-11-11 10:00:00",261481,0.385,27.78,8.25,95.5,156.111,0,865.3848,0,-3.157,3.164,193,6.945,8.12,21.22145,0.135,53.05,61.28,34.04,35.97
"2016-11-11 10:10:00",261482,0.356,55.92,8.32,97.4,146.2067,0,865.3848,0,-3.535,3.167,184,7.006,8.12,22.09304,0.149,53,61.22,34.03,35.96
"2016-11-11 10:20:00",261483,0.583,129.3,8.46,94.3,110.331,0,865.2162,0,-2.335,3.153,196,6.992,8.12,28.37232,0.268,53,61.16,34.03,35.94
"2016-11-11 10:30:00",261484,0.707,128.5,8.92,91.8,130.513,0,865.1446,0,-1.947,3.147,209,6.987,8.12,31.24479,0.259,52.94,61.16,34.02,35.94
"2016-11-11 10:40:00",261485,0.504,353.1,8.85,89.2,180.0229,0,865.2435,0,-1.957,3.15,214,6.993,8.12,30.52478,0.172,52.94,61.1,34.02,35.93
"2016-11-11 10:50:00",261486,0.315,2.978,8.42,89.4,116.5841,0,865.1551,0,-1.815,3.152,219,7.072,8.12,15.85166,0.135,52.88,61.04,34,35.92
"2016-11-11 11:00:00",261487,0.319,359.1,8.18,94.7,248.571,0,865.1951,0,-2.391,3.155,210,7.084,8.12,36.51984,0.141,52.88,61.04,34,35.92
"2016-11-11 11:10:00",261488,0.491,0.637,8.67,89.4,162.5881,0,865.1572,0,-1.326,3.145,271,7.132,8.11,23.40802,0.142,52.83,60.98,33.99,35.9
"2016-11-11 11:20:00",261489,0.424,36.44,8.47,89.5,118.1719,0,865.0983,0,-3.889,3.17,195,7.165,8.12,16.26472,0.137,52.83,60.98,33.99,35.9
"2016-11-11 11:30:00",261490,0.304,4.103,8.33,87.6,142.8148,0,864.9003,0,-4.174,3.175,187,7.143,8.12,20.4067,0.143,52.83,60.98,33.99,35.9
"2016-11-11 11:40:00",261491,0.285,334.6,8.18,88.1,155.6394,0,864.8792,0,-4.119,3.173,193,7.179,8.12,21.43366,0.137,52.77,60.92,33.98,35.89
"2016-11-11 11:50:00",261492,0.383,312.1,8.64,87.1,527.189,0,864.8687,0,-1.877,3.148,219,7.238,8.1,90.37305,0.178,52.77,60.86,33.98,35.88
"2016-11-11 12:00:00",261493,0.502,324.4,9.23,80.4,523.7225,0,864.8308,0,-2.739,3.156,224,7.27,8.13,68.20802,0.123,52.77,60.86,33.98,35.88
"2016-11-11 12:10:00",261494,0.541,5.547,9.4,75.99,726.3092,0,864.7086,0,-2.424,3.15,202,7.305,8.13,98.52058,0.136,52.72,60.8,33.96,35.86
"2016-11-11 12:20:00",261495,0.416,332.2,9.59,74.88,682.6972,0,864.8302,0,-2.116,3.147,193,7.311,8.14,89.42168,0.131,52.72,60.8,33.96,35.86
"2016-11-11 12:30:00",261496,0.578,306.1,9.48,73.4,634.2634,0,864.6093,0,-1.76,3.142,221,7.34,8.15,83.72014,0.129,52.66,60.8,33.95,35.86
"2016-11-11 12:40:00",261497,0.694,63.49,10.09,70.32,414.5759,0,864.5486,0,-1.926,3.145,192,7.337,8.12,54.00179,0.13,52.66,60.74,33.95,35.85
"2016-11-11 12:50:00",261498,0.376,323.7,9.21,73.77,270.8472,0,864.3647,0,-2.176,3.149,202,7.371,8.1,37.74419,0.14,52.66,60.74,33.95,35.85
"2016-11-11 13:00:00",261499,0.455,275.7,9.42,72.06,590.3342,0,864.2844,0,-2.374,3.15,189,7.369,8.1,68.14046,0.116,52.6,60.74,33.94,35.85
"2016-11-11 13:10:00",261500,0.453,348,9.41,72.78,331.6902,0,864.2932,0,-1.891,3.145,189,7.382,8.1,43.12986,0.131,52.66,60.68,33.95,35.83
"2016-11-11 13:20:00",261501,0.285,336.5,9.8,73.06,575.0015,0,864.2985,0,-2.729,3.153,196,7.408,8.09,58.97255,0.101,52.6,60.68,33.94,35.83
"2016-11-11 13:30:00",261502,0.494,293,9.07,75.28,340.3476,0,864.3581,0,-3.501,3.164,185,7.386,8.08,26.85923,0.078,52.6,60.68,33.94,35.83
"2016-11-11 13:40:00",261503,0.326,293,8.38,77.3,110.3926,0,864.5156,0,-3.155,3.164,189,7.437,8.06,11.59594,0.104,52.6,60.68,33.94,35.83
"2016-11-11 13:50:00",261504,0.247,287.4,8.05,78.09,114.8111,0,864.5607,0,-3.147,3.166,189,7.509,8.07,13.25928,0.115,52.55,60.68,33.92,35.83
"2016-11-11 14:00:00",261505,0.092,288.1,7.999,79.33,95.3865,0,864.6046,0,-3.14,3.165,172,7.524,8.06,11.47648,0.119,52.55,60.62,33.92,35.82
"2016-11-11 14:10:00",261506,0.094,304.4,8.11,79.73,107.4382,0,864.6273,0,-2.342,3.157,192,7.556,8.06,13.53524,0.126,52.49,60.62,33.91,35.82
"2016-11-11 14:20:00",261507,0.141,0.09,8.38,79.78,147.7714,0,864.7599,0,-2.41,3.154,187,7.636,8.1,22.2479,0.149,52.49,60.62,33.91,35.82
"2016-11-11 14:30:00",261508,0.221,34.24,9.09,76.73,185.0717,0,864.8661,0,-3.012,3.157,177,7.631,8.18,28.30766,0.153,52.49,60.56,33.91,35.81
"2016-11-11 14:40:00",261509,0.283,33.07,9.13,72.49,158.3823,0,864.8791,0,-2.911,3.156,187,7.605,8.2,23.15026,0.146,52.44,60.56,33.89,35.81
"2016-11-11 14:50:00",261510,0.235,180.7,9.47,74.88,173.2233,0,864.8749,0,-3.059,3.156,189,7.742,8.2,26.17435,0.151,52.44,60.56,33.89,35.81
"2016-11-11 15:00:00",261511,0.261,282.4,9.42,73.34,122.4794,0,864.877,0,-3.213,3.158,195,7.746,8.2,17.36747,0.141,52.44,60.56,33.89,35.81
"2016-11-11 15:10:00",261512,0.415,303.6,9.19,73.14,91.1472,0,864.9844,0,-2.227,3.15,204,7.764,8.2,12.51685,0.137,52.44,60.5,33.89,35.79
"2016-11-11 15:20:00",261513,0.263,50.01,9.1,74.2,54.23791,0,865.1403,0,-3.625,3.164,202,7.8,8.2,7.003072,0.129,52.38,60.5,33.88,35.79
"2016-11-11 15:30:00",261514,0.197,296.9,8.78,75.38,58.41973,0,865.3404,0,-3.483,3.166,200,7.821,8.2,7.423711,0.126,52.38,60.5,33.88,35.79
"2016-11-11 15:40:00",261515,0.298,312.6,8.27,76.93,44.57727,0,865.3888,0,-3.132,3.164,194,7.856,8.2,4.975667,0.11,52.38,60.44,33.88,35.78
"2016-11-11 15:50:00",261516,0.371,276.6,8.12,77.97,57.80661,0,865.5784,0,-3.54,3.169,191,7.843,8.2,8.310464,0.143,52.38,60.44,33.88,35.78
"2016-11-11 16:00:00",261517,0.216,270.2,8,79.29,54.89427,0,865.6289,0,-3.466,3.169,187,7.825,8.2,7.958036,0.143,52.32,60.44,33.87,35.78
"2016-11-11 16:10:00",261518,0.099,269.9,7.866,79.41,36.97611,0,865.6479,0,-3.594,3.171,177,7.89,8.2,5.0363,0.136,52.32,60.44,33.87,35.78
"2016-11-11 16:20:00",261519,0.117,286.7,7.671,78.96,18.01642,0,865.6437,0,-3.673,3.173,178,7.914,8.2,1.792453,0.097,52.32,60.44,33.87,35.78
"2016-11-11 16:30:00",261520,0.038,240.9,7.423,80.5,5.773587,0,865.6374,0,-3.196,3.17,192,7.947,8.21,0.06063266,0.006,52.32,60.38,33.87,35.77
"2016-11-11 16:40:00",261521,0.062,230.9,7.121,82.1,1.914057,0,865.7027,0,-3.281,3.173,179,7.948,8.23,0,0,52.32,60.38,33.87,35.77
"2016-11-11 16:50:00",261522,0.477,289.5,6.874,83.6,0.1139893,0,865.8396,0,-3.228,3.173,186,7.98,8.27,0,0,52.32,60.44,33.87,35.78
"2016-11-11 17:00:00",261523,0.247,269.1,6.809,84.4,0,0,865.8901,0,-3.295,3.174,195,8.04,8.32,0,0,52.32,60.38,33.87,35.77
"2016-11-11 17:10:00",261524,0.737,286.4,6.715,83.9,0,0,865.9418,0,-3.43,3.176,194,8.1,8.33,0,0,52.27,60.33,33.85,35.75
"2016-11-11 17:20:00",261525,0.498,285.2,6.49,85.1,0,0,866.1733,0,-3.056,3.174,185,8.12,8.34,0,0,52.27,60.33,33.85,35.75
"2016-11-11 17:30:00",261526,0.571,290.9,6.208,85,0,0,866.2255,0,-3.236,3.177,189,8.11,8.36,0,0,52.27,60.38,33.85,35.77
"2016-11-11 17:40:00",261527,0.62,354.1,6.088,83,0,0,866.4249,0,-2.556,3.172,185,8.12,8.37,0,0,52.21,60.38,33.84,35.77
"2016-11-11 17:50:00",261528,0.57,342.8,5.648,85.4,0,0,866.4852,0,-2.758,3.174,181,8.11,8.38,0.003790837,0,52.21,60.38,33.84,35.77
"2016-11-11 18:00:00",261529,1.379,293.5,5.963,83.7,0,0,866.4866,0,-3.666,3.182,184,8.1,8.37,0.253986,0,52.21,60.33,33.84,35.75
"2016-11-11 18:10:00",261530,1.006,280.9,5.84,85.4,0,0,866.6956,0,-3.466,3.181,184,8.11,8.33,0,0,52.21,60.33,33.84,35.75
"2016-11-11 18:20:00",261531,0.844,289.7,5.748,84.2,0,0,866.8789,0,-3.215,3.18,190,8.11,8.3,0,0,52.21,60.33,33.84,35.75
"2016-11-11 18:30:00",261532,0.925,325.1,5.602,82.4,0,0,866.9695,0,-2.533,3.173,193,8.06,8.3,0.01895418,0,52.16,60.27,33.83,35.74
"2016-11-11 18:40:00",261533,0.393,3.078,5.58,81.5,0,0,867.0117,0,-2.811,3.176,183,8.04,8.3,0.01895418,0,52.21,60.33,33.84,35.75
"2016-11-11 18:50:00",261534,0.394,274.2,5.569,80.3,0,0,867.1824,0,-2.582,3.173,202,8.06,8.3,0.07960757,0,52.16,60.33,33.83,35.75
"2016-11-11 19:00:00",261535,0.229,267.7,5.623,79.64,0,0,867.2898,0,-3.087,3.178,184,8.08,8.3,0.07581673,0,52.16,60.33,33.83,35.75
"2016-11-11 19:10:00",261536,0.456,216.5,5.509,80,0,0,867.4836,0,-2.761,3.176,194,8.09,8.36,0.04928087,0,52.16,60.27,33.83,35.74
"2016-11-11 19:20:00",261537,0.427,165.3,5.472,79.72,0,0,867.4984,0,-2.761,3.176,194,8.11,8.42,0.003790837,0,52.16,60.27,33.83,35.74
"2016-11-11 19:30:00",261538,0.412,139.9,5.47,78.43,0,0,867.53,0,-3.418,3.183,188,8.1,8.45,0,0,52.21,60.27,33.84,35.74
"2016-11-11 19:40:00",261539,0.527,192.3,5.075,80.6,0,0,867.747,0,-3.017,3.181,188,7.966,8.46,0,0,52.16,60.27,33.83,35.74
"2016-11-11 19:50:00",261540,0.214,120.8,4.651,82.7,0,0,867.8312,0,-3.472,3.187,186,7.963,8.45,0,0,52.1,60.27,33.81,35.74
"2016-11-11 20:00:00",261541,0.113,116.4,4.546,82.8,0,0,867.9955,0,-3.274,3.19,191,8.03,8.45,0.01895418,0,52.1,60.27,33.81,35.74
"2016-11-11 20:10:00",261542,0.056,159.4,4.05,86,0,0,868.0104,0,-3.127,3.187,183,8.04,8.45,0,0,52.1,60.21,33.81,35.73
"2016-11-11 20:20:00",261543,0.222,145,4.37,83.6,0,0,868.0145,0,-3.087,3.187,187,8.05,8.47,0.4246002,0,52.1,60.21,33.81,35.73
"2016-11-11 20:30:00",261544,0.721,179.6,4.351,83.1,0,0,868.0134,0,-3.457,3.189,178,8.07,8.51,0.3753569,0,52.1,60.21,33.81,35.73
"2016-11-11 20:40:00",261545,0.645,181.2,4.428,80.7,0,0,868.0203,0,-3.037,3.182,190,8.03,8.54,0.3564367,0,52.1,60.15,33.81,35.71
"2016-11-11 20:50:00",261546,0.629,211.7,4.78,78.31,0,0,868.0999,0,-3.977,3.197,177,7.965,8.55,0.4284983,0,52.1,60.15,33.81,35.71
"2016-11-11 21:00:00",261547,0.726,184,4,81.7,0,0,868.2006,0,-3.727,3.193,182,7.993,8.56,0.06067378,0,52.1,60.15,33.81,35.71
"2016-11-11 21:10:00",261548,0.377,185.2,4.175,79.62,0,0,868.3337,0,-3.223,3.187,187,8.03,8.56,0.09859521,0,52.1,60.15,33.81,35.71
"2016-11-11 21:20:00",261549,0.408,133,3.661,82.6,0,0,868.3954,0,-2.621,3.188,192,8,8.56,0.03033703,0,52.05,60.15,33.8,35.71
"2016-11-11 21:30:00",261550,0.631,188.4,3.587,81.5,0,0,868.5143,0,-3.298,3.187,198,7.954,8.56,0.3071626,0,52.05,60.15,33.8,35.71
"2016-11-11 21:40:00",261551,0.314,166.9,3.908,77.63,0,0,868.5986,0,-3.477,3.192,190,7.929,8.56,0.2768255,0,52.05,60.09,33.8,35.7
"2016-11-11 21:50:00",261552,0.575,206.5,4.273,73.76,0,0,868.6017,0,-3.426,3.19,180,7.952,8.56,0.6029487,0,52.05,60.09,33.8,35.7
"2016-11-11 22:00:00",261553,0.415,175.1,4.347,73.04,0,0,868.6019,0,-2.872,3.185,184,7.952,8.56,0.2957862,0,52.05,60.09,33.8,35.7
"2016-11-11 22:10:00",261554,0.438,224.5,4.111,72.96,0,0,868.6209,0,-2.62,3.182,176,7.949,8.56,0.05308982,0,52.05,60.15,33.8,35.71
"2016-11-11 22:20:00",261555,0.15,127.9,4.024,73.49,0,0,868.6694,0,-3.074,3.19,180,7.906,8.56,0.06825834,0,51.99,60.09,33.79,35.7
"2016-11-11 22:30:00",261556,0.36,160.9,3.264,77.34,0,0,868.7137,0,-2.017,3.18,184,7.893,8.56,0.02275278,0,52.05,60.09,33.8,35.7
"2016-11-11 22:40:00",261557,0.594,173.8,3.628,72.91,0,0,868.6062,0,-2.622,3.187,176,7.867,8.56,0.3109547,0,52.05,60.09,33.8,35.7
"2016-11-11 22:50:00",261558,0.307,242.9,3.829,70.39,0,0,868.6462,0,-1.863,3.174,187,7.865,8.56,0.4133422,0,51.99,60.09,33.79,35.7
"2016-11-11 23:00:00",261559,0.584,284.9,4.847,64.54,0,0,868.8254,0,-3.425,3.188,193,7.865,8.56,1.008707,0,51.99,60.03,33.79,35.69
"2016-11-11 23:10:00",261560,0.198,143.8,3.429,73.47,0,0,868.8232,0,-2.371,3.187,195,7.846,8.56,0,0,51.99,60.03,33.79,35.69
"2016-11-11 23:20:00",261561,0.569,308,3.864,69.16,0,0,868.7453,0,-2.766,3.179,181,7.812,8.56,0.5157297,0,51.99,60.03,33.79,35.69
"2016-11-11 23:30:00",261562,1.216,292.9,5.102,62.26,0,0,868.8549,0,-3.118,3.181,188,7.756,8.56,0.6560385,0,51.99,60.09,33.79,35.7
"2016-11-11 23:40:00",261563,0.5,3.928,4.708,64.63,0,0,868.9055,0,-3.023,3.187,179,7.767,8.55,0.03412917,0,51.99,60.09,33.79,35.7
"2016-11-11 23:50:00",261564,0.369,356.1,4.239,66.56,0,0,868.876,0,-3.169,3.183,182,7.779,8.57,0.04171343,0,51.99,60.03,33.79,35.69
